Wind_Speed
11 11 11 12 12 13 13 13 14 14 15 15 15 15 15 16 16 15 14 12 11 10 8 6 5 4 6 7 9 11 12 13 15 18 21 21 23 24 25 26 27 28 29
12 12 12 13 13 14 14 14 14 15 15 15 15 16 16 16 15 15 14 13 11 9 8 7 5 5 5 6 8 10 12 13 14 16 19 20 21 23 24 25 25 27 28
13 13 13 14 14 14 15 15 15 15 16 16 16 16 16 15 15 15 14 13 11 10 9 7 6 6 6 7 8 10 11 13 14 16 18 19 20 22 24 25 25 26 27
14 14 15 15 15 16 16 16 16 16 16 16 16 16 16 16 15 15 14 13 12 11 10 8 7 7 7 8 8 9 11 12 14 15 17 18 20 21 22 23 23 25 26
15 16 16 16 17 17 17 17 17 17 17 17 17 17 17 17 16 15 14 14 13 12 11 10 10 9 9 10 10 11 11 12 14 15 16 17 18 20 21 22 23 23 24
17 17 18 18 18 19 19 19 19 19 19 18 18 18 18 18 17 16 16 15 14 13 12 12 11 11 10 11 11 12 13 14 15 16 17 18 18 19 21 22 23 23 24
18 19 19 20 20 20 21 21 21 21 21 20 20 19 19 19 19 18 18 17 16 15 15 14 13 13 12 12 13 13 13 15 16 17 19 20 20 20 21 22 23 23 25
20 21 21 22 22 23 23 23 23 23 23 23 22 22 21 21 21 20 20 19 18 17 17 16 16 15 15 15 15 15 15 16 17 18 19 20 21 22 22 22 23 23 25
23 23 24 24 25 25 25 26 26 26 26 26 25 25 24 23 23 23 22 22 21 20 19 19 18 18 18 18 17 17 17 18 18 19 20 21 22 23 23 23 24 24 25
25 26 26 27 28 28 29 29 29 29 29 28 28 28 28 27 26 26 25 25 24 24 23 22 21 21 20 20 20 20 20 20 20 20 21 22 23 23 23 24 24 25 26
28 29 29 30 31 31 32 32 32 32 32 31 31 30 30 30 30 29 28 28 27 27 26 25 24 24 23 23 22 22 22 22 22 22 22 23 23 24 25 25 25 26 26
31 32 33 33 34 34 34 34 35 35 34 34 34 34 33 33 33 32 32 31 30 30 29 28 27 26 26 25 25 24 24 24 24 23 23 23 24 25 25 26 26 26 26
35 36 36 37 37 38 38 37 37 37 37 38 38 37 37 36 36 35 35 34 34 33 32 31 31 30 29 28 27 27 26 26 26 25 25 25 25 25 25 26 26 27 27
38 38 39 39 40 40 40 40 41 41 41 41 40 40 40 39 38 37 37 37 36 35 34 34 33 32 32 31 29 29 28 28 27 27 27 27 27 26 26 26 27 27 27
41 41 42 42 43 43 44 44 44 44 44 43 43 42 42 41 40 39 39 38 38 38 37 36 35 34 34 33 32 31 30 29 29 29 28 28 28 28 28 28 28 28 28
45 45 46 46 46 46 47 47 46 46 46 45 44 44 44 43 42 41 41 40 40 40 40 38 37 36 35 35 34 33 33 32 31 30 30 30 30 30 29 29 29 29 29
48 49 50 50 50 50 49 49 49 48 48 47 46 46 45 45 45 44 43 42 42 42 41 40 39 38 37 36 36 35 35 34 34 33 32 31 31 31 30 30 30 30 30
52 52 53 53 53 53 52 52 51 51 50 49 48 48 48 47 46 46 46 45 44 44 43 42 41 40 39 38 37 37 36 36 36 35 34 34 33 32 32 32 31 31 31
55 55 55 55 55 56 55 55 54 53 53 52 50 49 49 49 48 48 47 47 46 45 45 44 43 42 41 41 40 39 38 38 37 36 36 35 35 34 34 33 33 33 33
58 58 58 57 57 57 57 57 56 54 53 53 51 50 50 50 49 49 49 49 48 47 47 46 45 43 42 43 42 41 40 40 39 38 37 36 35 35 35 34 34 34 34
59 59 59 58 58 57 57 56 55 54 53 52 51 51 51 50 50 50 49 49 50 49 48 47 46 46 44 43 43 43 42 41 40 39 38 38 37 36 35 35 34 34 34
59 59 59 58 57 56 56 55 55 53 52 51 50 50 50 50 50 50 49 49 50 50 50 50 49 48 48 45 44 44 43 42 41 40 39 38 37 37 36 35 35 35 34
59 58 58 57 56 55 55 54 53 51 50 49 49 49 49 48 48 49 49 49 49 49 49 49 50 49 48 47 44 44 44 43 42 41 41 40 39 38 38 37 36 36 35
58 58 57 56 55 54 53 51 50 49 48 48 48 47 47 46 46 47 48 48 48 47 48 48 48 48 47 47 45 44 44 43 43 42 42 41 40 39 39 38 37 37 37
57 57 56 55 54 52 50 49 48 47 47 47 47 47 46 46 45 45 46 46 47 46 46 47 48 48 47 47 45 44 44 44 44 44 43 42 41 40 40 39 39 38 37
56 55 54 53 51 49 47 47 46 45 46 45 45 46 46 45 44 44 45 45 45 45 45 45 47 47 47 46 45 44 44 45 45 45 44 43 42 41 41 40 40 39 37
Wind_Direction
297 301 304 307 310 312 316 320 324 328 330 333 336 337 340 343 346 348 347 346 345 344 338 329 312 283 256 239 233 232 231 227 225 225 226 224 225 225 228 227 228 229 230
296 299 302 304 307 309 311 314 317 320 323 326 329 333 335 338 341 344 345 344 343 341 337 326 311 291 267 250 241 237 234 231 230 229 228 228 229 229 227 228 229 230 231
296 297 299 301 303 305 307 309 311 313 317 320 323 326 329 332 335 338 340 339 337 334 332 323 307 289 271 259 251 244 238 234 233 232 232 231 231 233 231 231 232 231 233
297 297 297 299 300 302 304 306 307 309 311 314 316 319 322 324 326 328 330 331 329 326 323 317 305 288 273 262 257 252 244 238 235 235 234 234 234 234 233 233 234 234 234
296 296 296 297 298 299 300 301 303 305 306 308 309 311 314 315 316 317 318 320 320 317 313 307 301 291 280 268 261 257 251 244 239 238 235 235 235 235 236 235 236 238 236
296 296 295 296 296 296 297 298 299 301 302 302 303 305 306 307 308 307 307 309 309 308 306 302 296 290 283 276 266 260 256 249 244 241 240 241 240 239 239 239 240 241 240
296 296 296 295 294 294 295 296 297 298 299 299 299 300 301 300 301 301 299 299 299 299 298 296 292 286 281 276 270 264 262 257 251 247 245 244 244 242 241 241 243 244 244
294 294 295 295 295 294 294 294 294 295 295 295 294 294 295 295 295 295 294 293 292 291 290 289 287 283 280 275 271 267 263 260 256 252 248 246 245 244 244 245 245 247 248
293 293 294 294 294 293 293 293 293 293 293 293 292 291 291 290 289 289 289 288 287 285 284 283 282 280 277 275 272 267 264 261 259 256 253 251 249 247 246 248 248 249 250
292 292 293 294 294 293 292 292 292 291 291 290 289 288 287 286 284 283 283 282 281 280 279 278 277 276 274 273 272 269 265 262 261 259 257 254 253 250 249 250 251 251 252
292 292 293 294 294 293 292 291 290 289 288 287 287 286 284 283 281 280 279 278 277 276 275 274 274 273 272 271 270 268 265 262 261 260 258 257 256 253 251 252 253 253 254
291 292 292 293 293 292 291 290 289 287 286 285 285 284 282 281 280 278 277 276 275 274 273 272 271 270 270 269 268 266 264 262 260 260 259 259 257 255 253 254 255 255 255
292 292 292 293 293 292 290 288 286 285 285 284 283 281 280 279 279 277 275 274 273 272 271 270 269 268 267 267 266 264 262 260 260 259 259 259 259 257 255 255 256 256 256
292 292 292 292 292 291 289 287 285 284 282 282 281 279 278 278 277 275 273 271 270 269 269 268 268 266 265 263 263 262 260 260 259 259 258 258 258 258 258 258 257 257 257
292 292 292 292 291 290 288 286 284 283 282 281 280 278 276 276 275 274 272 269 268 267 266 266 265 264 263 262 261 259 259 259 258 258 258 257 256 257 258 259 258 258 258
291 292 292 291 291 290 289 286 283 282 281 280 279 277 275 274 273 272 271 268 266 265 264 263 263 263 262 262 261 260 259 258 258 258 258 258 258 257 258 258 258 258 259
291 292 292 291 291 290 289 287 283 281 279 278 277 276 274 273 272 271 269 267 265 263 262 261 261 261 260 260 260 259 258 257 257 257 257 258 259 258 257 258 258 258 259
291 291 291 291 290 289 288 287 285 282 279 277 276 274 272 271 270 269 267 265 264 262 260 259 258 258 257 257 257 258 257 256 256 256 257 257 258 257 258 258 259 259 260
291 291 290 289 289 288 287 287 285 282 280 278 275 273 271 269 268 267 265 263 262 261 259 258 257 256 255 255 255 255 255 255 255 255 256 256 257 258 258 259 259 260 261
291 290 290 289 288 288 287 286 285 282 279 277 275 273 270 268 267 265 263 261 261 260 258 257 255 255 254 253 253 253 253 253 253 254 255 256 256 257 259 259 259 259 260
291 291 290 289 288 288 287 286 284 282 279 277 275 273 270 268 266 264 262 259 257 257 256 255 253 253 253 253 252 252 253 253 252 252 253 255 256 257 257 258 258 259 260
291 291 290 289 288 288 286 285 284 282 279 277 275 272 270 268 266 263 260 258 256 255 253 253 252 252 251 252 252 252 252 252 252 251 252 254 254 255 255 256 258 258 260
292 291 290 289 288 287 285 284 283 281 278 276 274 272 270 269 266 262 259 258 256 254 252 251 250 250 250 249 250 251 251 251 251 251 251 252 253 254 254 256 257 257 259
292 292 290 288 287 286 284 283 281 279 277 275 273 272 270 269 266 263 259 256 255 253 251 250 248 247 248 248 248 249 249 249 249 249 250 251 252 252 253 255 256 258 258
292 292 290 288 287 285 283 282 281 279 277 274 273 271 269 267 265 263 259 256 254 252 250 248 247 246 246 246 246 248 247 247 247 248 248 250 251 251 252 254 255 257 258
293 292 290 289 287 285 283 281 280 278 276 274 273 271 269 267 265 263 259 256 254 251 248 247 245 244 244 244 244 246 246 246 246 247 248 250 249 250 251 253 254 256 258
Height
5835 5834 5832 5831 5829 5828 5826 5824 5822 5819 5817 5814 5811 5809 5806 5803 5800 5797 5794 5791 5789 5787 5785 5784 5783 5783 5783 5783 5784 5785 5786 5788 5789 5792 5794 5796 5799 5802 5805 5808 5811 5814 5817
5832 5831 5830 5828 5827 5825 5824 5822 5820 5817 5815 5812 5810 5807 5805 5802 5799 5796 5793 5791 5788 5787 5785 5784 5783 5782 5782 5782 5783 5783 5784 5785 5787 5789 5791 5793 5795 5798 5801 5804 5806 5809 5812
5829 5828 5827 5825 5824 5822 5821 5819 5817 5815 5813 5810 5808 5806 5803 5800 5798 5795 5792 5790 5788 5786 5784 5783 5782 5781 5781 5781 5781 5781 5782 5783 5784 5786 5787 5789 5791 5794 5796 5799 5801 5804 5806
5826 5825 5824 5822 5821 5819 5818 5816 5814 5812 5810 5808 5806 5803 5801 5799 5796 5794 5791 5789 5787 5785 5783 5782 5781 5780 5779 5779 5779 5779 5780 5781 5782 5783 5784 5785 5787 5789 5791 5794 5796 5798 5801
5822 5821 5820 5819 5817 5816 5814 5812 5811 5809 5807 5805 5803 5801 5798 5796 5794 5792 5789 5787 5785 5783 5782 5780 5779 5778 5778 5777 5777 5777 5777 5778 5779 5779 5781 5782 5784 5785 5787 5789 5791 5793 5795
5818 5817 5816 5815 5813 5811 5810 5808 5807 5805 5803 5801 5799 5797 5795 5793 5791 5789 5787 5785 5783 5781 5780 5778 5777 5776 5775 5775 5774 5774 5774 5775 5775 5776 5777 5778 5779 5781 5782 5784 5786 5788 5790
5814 5813 5811 5810 5808 5807 5805 5803 5802 5800 5798 5796 5795 5793 5791 5789 5787 5785 5783 5781 5780 5778 5777 5775 5774 5773 5772 5771 5771 5771 5771 5771 5771 5772 5773 5773 5775 5776 5777 5779 5780 5782 5784
5808 5807 5806 5804 5802 5801 5799 5798 5796 5794 5793 5791 5789 5787 5786 5784 5782 5781 5779 5777 5775 5774 5772 5771 5770 5769 5768 5767 5767 5766 5766 5766 5766 5767 5768 5768 5769 5771 5772 5773 5774 5776 5777
5802 5801 5799 5798 5796 5794 5792 5791 5789 5787 5786 5784 5782 5781 5779 5778 5776 5774 5773 5771 5770 5769 5767 5766 5765 5764 5763 5763 5762 5761 5761 5761 5761 5761 5762 5763 5764 5765 5766 5767 5768 5770 5771
5795 5794 5792 5790 5788 5787 5785 5783 5781 5779 5778 5776 5775 5773 5771 5770 5768 5767 5765 5764 5763 5762 5761 5760 5759 5758 5758 5757 5756 5756 5755 5755 5755 5755 5756 5757 5757 5758 5759 5761 5762 5763 5764
5787 5785 5783 5782 5780 5778 5776 5774 5772 5770 5769 5767 5765 5764 5762 5761 5759 5758 5756 5755 5755 5754 5753 5753 5752 5751 5751 5750 5749 5749 5749 5748 5748 5749 5749 5750 5750 5751 5752 5753 5754 5755 5756
5778 5776 5774 5772 5770 5768 5766 5764 5762 5760 5758 5757 5755 5753 5752 5750 5749 5748 5747 5746 5745 5744 5744 5744 5743 5743 5742 5742 5742 5741 5741 5741 5741 5741 5742 5742 5743 5744 5745 5745 5746 5747 5748
5768 5766 5763 5761 5758 5756 5754 5752 5750 5748 5746 5745 5743 5742 5740 5739 5738 5736 5735 5735 5734 5734 5734 5734 5733 5733 5733 5733 5733 5733 5733 5733 5733 5733 5734 5735 5735 5736 5736 5737 5738 5739 5740
5756 5754 5751 5748 5746 5743 5741 5739 5737 5735 5733 5731 5730 5728 5727 5726 5725 5724 5723 5722 5722 5722 5722 5722 5722 5722 5722 5723 5723 5723 5724 5724 5725 5725 5726 5726 5727 5728 5728 5729 5730 5731 5732
5744 5741 5738 5735 5732 5730 5727 5724 5722 5720 5718 5716 5715 5713 5713 5712 5711 5710 5709 5709 5709 5709 5709 5709 5710 5710 5711 5711 5712 5713 5714 5715 5715 5716 5717 5718 5719 5719 5720 5721 5722 5723 5724
5730 5727 5724 5721 5718 5714 5711 5709 5706 5704 5702 5700 5699 5698 5697 5696 5695 5695 5694 5694 5694 5695 5695 5696 5697 5698 5699 5700 5701 5702 5703 5705 5706 5707 5708 5708 5709 5710 5711 5712 5713 5714 5715
5715 5712 5708 5705 5702 5698 5695 5692 5689 5688 5685 5684 5682 5681 5680 5680 5679 5679 5678 5679 5679 5679 5680 5682 5684 5685 5687 5688 5689 5690 5692 5694 5695 5696 5697 5699 5700 5701 5702 5703 5704 5705 5706
5699 5695 5691 5688 5684 5681 5677 5674 5671 5669 5668 5667 5665 5664 5663 5662 5662 5662 5662 5662 5663 5664 5665 5667 5669 5671 5673 5675 5676 5678 5680 5682 5683 5685 5687 5688 5689 5691 5692 5693 5694 5695 5696
5681 5678 5673 5670 5666 5662 5659 5656 5653 5650 5648 5647 5647 5646 5645 5644 5644 5644 5644 5645 5647 5648 5650 5652 5654 5656 5659 5661 5663 5665 5667 5669 5671 5673 5675 5677 5678 5680 5681 5682 5684 5685 5686
5663 5659 5654 5650 5647 5643 5640 5636 5633 5631 5629 5627 5627 5627 5626 5625 5625 5626 5627 5628 5629 5632 5634 5636 5638 5641 5644 5646 5649 5651 5654 5656 5658 5661 5663 5664 5667 5668 5670 5671 5672 5674 5675
5644 5640 5635 5631 5627 5624 5620 5617 5614 5611 5609 5608 5607 5607 5606 5605 5606 5607 5608 5610 5612 5614 5617 5620 5622 5625 5628 5631 5634 5637 5640 5642 5645 5648 5650 5652 5654 5656 5658 5660 5661 5662 5664
5623 5620 5616 5612 5608 5604 5601 5597 5594 5592 5590 5588 5588 5587 5586 5586 5587 5588 5589 5591 5593 5596 5599 5602 5606 5609 5613 5615 5619 5622 5626 5629 5632 5635 5637 5639 5641 5644 5646 5648 5650 5651 5652
5604 5600 5596 5592 5588 5585 5581 5578 5575 5573 5571 5569 5568 5568 5568 5568 5568 5569 5570 5572 5575 5577 5581 5585 5589 5593 5597 5600 5604 5608 5611 5615 5618 5621 5624 5627 5629 5631 5634 5636 5638 5640 5641
5586 5581 5577 5573 5569 5566 5563 5560 5557 5555 5553 5552 5551 5550 5550 5550 5550 5551 5552 5554 5557 5560 5564 5568 5572 5577 5581 5585 5589 5593 5597 5601 5604 5608 5611 5614 5616 5619 5621 5624 5626 5628 5629
5568 5563 5559 5554 5551 5547 5544 5542 5540 5538 5536 5535 5534 5533 5533 5533 5533 5534 5535 5537 5540 5544 5547 5552 5557 5561 5566 5570 5575 5579 5583 5586 5590 5594 5597 5600 5603 5606 5609 5611 5613 5615 5617
5550 5545 5541 5537 5534 5530 5528 5525 5523 5521 5520 5519 5518 5517 5516 5516 5517 5518 5519 5521 5524 5527 5531 5535 5541 5545 5550 5555 5560 5564 5568 5572 5576 5580 5583 5587 5590 5593 5596 5598 5601 5603 5605